Meteor 2-16 Rocket - Orbit

View from above orbital plane
View from above orbital plane
View from above satellite
View from above satellite

Ground track
Ground track

The orbit data is extracted from the following two-line orbital elements,

1 18313U 87068B   13138.49258689  .00000032  00000-0  15214-4 0  6496
2 18313 082.5557 131.5640 0010700 161.0193 199.1368 13.84111578301100
Epoch (UTC): 18 May 2013 11:49:19
Eccentricity: 0.0010700
inclination: 82.5557°
perigee height: 941 km
apogee height: 957 km
right ascension of ascending node: 131.5640°
argument of perigee: 161.0193°
revolutions per day: 13.84111578
mean anomaly at epoch: 199.1368°
orbit number at epoch: 30110

The dashed part of the orbit path shows where the satellite is in the earth's shadow,  

Developed and maintained by Chris Peat, Heavens-Above GmbH. Please read the updated FAQ before sending e-mail. Imprint. DLR